This is the latest recevied weather packets stored in our database for station/object N7AWM. If no packets are shown the sender has not sent any weather packets the latest 10 day(s).
| Time | Temp. | Humidity | Pressure | Rain* | Wind** | Luminosity | Snow |
|---|---|---|---|---|---|---|---|
| 1777673389 | 21.67° C | 35% | 1012.4 hPa | 0 mm | - | - | - |
| 1777672549 | 22.22° C | 33% | 1012.5 hPa | 0 mm | - | - | - |
| 1777671709 | 21.67° C | 34% | 1012.6 hPa | 0 mm | - | - | - |
| 1777670869 | 21.67° C | 34% | 1012.9 hPa | 0 mm | - | - | - |
| 1777670029 | 22.22° C | 33% | 1013 hPa | 0 mm | - | - | - |
| 1777669189 | 21.67° C | 33% | 1013.1 hPa | 0 mm | - | - | - |
| 1777668349 | 21.67° C | 32% | 1013.2 hPa | 0 mm | - | - | - |
| 1777667509 | 21.11° C | 36% | 1013.2 hPa | 0 mm | - | - | - |
| 1777666669 | 21.11° C | 37% | 1013.4 hPa | 0 mm | - | - | - |
| 1777665829 | 21.11° C | 36% | 1013.4 hPa | 0 mm | - | - | - |
| 1777664989 | 21.11° C | 36% | 1013.6 hPa | 0 mm | - | - | - |
| 1777664149 | 21.11° C | 36% | 1013.8 hPa | 0 mm | - | - | - |
| 1777663309 | 20.56° C | 35% | 1013.9 hPa | 0 mm | - | - | - |
| 1777662470 | 21.11° C | 36% | 1014.1 hPa | 0 mm | - | - | - |
| 1777661630 | 20.56° C | 37% | 1014.1 hPa | 0 mm | - | - | - |
| 1777660790 | 20° C | 45% | 1014.3 hPa | 0 mm | - | - | - |
| 1777659950 | 20° C | 44% | 1014.3 hPa | 0 mm | - | - | - |
| 1777659110 | 18.89° C | 48% | 1014.4 hPa | 0 mm | - | - | - |
| 1777658270 | 18.89° C | 49% | 1014.4 hPa | 0 mm | - | - | - |
| 1777657430 | 18.33° C | 49% | 1014.5 hPa | 0 mm | - | - | - |
| 1777656590 | 17.78° C | 50% | 1014.6 hPa | 0 mm | - | - | - |
| 1777655750 | 17.78° C | 49% | 1014.7 hPa | 0 mm | - | - | - |
| 1777654910 | 16.67° C | 48% | 1014.7 hPa | 0 mm | - | - | - |
| 1777654070 | 16.67° C | 51% | 1014.7 hPa | 0 mm | - | - | - |
| 1777653230 | 16.11° C | 51% | 1014.8 hPa | 0 mm | - | - | - |
* Rain latest hour (hover to see other rain measurements)
** Current wind speed in m/s (hover to see current wind gust speed)